Location: Bakov nad Jizerou
(50.4784°N, 14.9394°E)
Time: 15:04:08
(UTC+00:00)

USA 238 DEB - Pass Details

Date: 16 June 2021
Orbit: 991 x 1221 km, 63.4° (Epoch: 16 July)

Event Time Altitude Azimuth Distance (km) Brightness Sun altitude
Rises 19:55:39 0° 222° (SW) 3,722 6.5 -5.6°
Reaches altitude 10° 19:58:11 10° 223° (SW) 2,793 5.9 -5.8°
Maximum altitude 20:04:46 87° 311° (NW) 1,057 3.8 -6.5°
Drops below altitude 10° 20:11:46 10° 44° (NE) 2,953 6.1 -7.2°
Sets 20:14:31 0° 45° (NE) 3,948 6.8 -7.5°
